| time (UTC) | temp F | wind direction | speed knots | gust knots | rain 1hr in | rain 24hr in | rain mn in | humidity % | barometer mb |
| 20260906223358 | 77 | 186 | 0.0 | 0.9 | 0.00 | 0.00 | 0.00 | 66 | 1023.0 |
| 20260906222352 | 78 | 186 | 0.0 | 0.9 | 0.00 | 0.00 | 0.00 | 66 | 1022.9 |
| 20260906221351 | 78 | 186 | 0.0 | 0.9 | 0.00 | 0.00 | 0.00 | 66 | 1022.8 |
| 20260906220350 | 78 | 186 | 0.0 | 0.9 | 0.00 | 0.00 | 0.00 | 65 | 1022.8 |
| 20260906215359 | 78 | 186 | 0.0 | 1.7 | 0.00 | 0.00 | 0.00 | 65 | 1022.8 |
| 20260906214401 | 79 | 186 | 0.0 | 1.7 | 0.00 | 0.00 | 0.00 | 64 | 1022.7 |
| 20260906213345 | 79 | 186 | 0.0 | 0.9 | 0.00 | 0.00 | 0.00 | 64 | 1022.8 |
| 20260906212355 | 79 | 186 | 0.0 | 1.7 | 0.00 | 0.00 | 0.00 | 63 | 1022.9 |
| 20260906211401 | 79 | 186 | 0.0 | 0.9 | 0.00 | 0.00 | 0.00 | 62 | 1022.8 |
| 20260906210341 | 79 | 186 | 0.0 | 0.9 | 0.00 | 0.00 | 0.00 | 62 | 1022.9 |
| 20260906205402 | 79 | 186 | 0.0 | 2.6 | 0.00 | 0.00 | 0.00 | 62 | 1022.9 |
| 20260906204344 | 80 | 187 | 1.7 | 2.6 | 0.00 | 0.00 | 0.00 | 60 | 1022.8 |
| 20260906203346 | 80 | 187 | 0.0 | 1.7 | 0.00 | 0.00 | 0.00 | 59 | 1022.8 |
| 20260906202338 | 80 | 187 | 1.7 | 2.6 | 0.00 | 0.00 | 0.00 | 58 | 1023.0 |
| 20260906201342 | 80 | 187 | 0.0 | 0.9 | 0.00 | 0.00 | 0.00 | 58 | 1023.0 |
| 20260906200346 | 80 | 187 | 0.0 | 2.6 | 0.00 | 0.00 | 0.00 | 58 | 1023.0 |
| 20260906195400 | 80 | 188 | 0.0 | 3.5 | 0.00 | 0.00 | 0.00 | 59 | 1022.8 |
| 20260906194359 | 81 | 211 | 0.9 | 3.5 | 0.00 | 0.00 | 0.00 | 65 | 1022.7 |
| 20260906193400 | 81 | 272 | 2.6 | 3.5 | 0.00 | 0.00 | 0.00 | 65 | 1022.7 |
| 20260906192344 | 82 | 272 | 1.7 | 3.5 | 0.00 | 0.00 | 0.00 | 64 | 1022.4 |
| 20260906191400 | 82 | 272 | 2.6 | 3.5 | 0.00 | 0.00 | 0.00 | 63 | 1022.2 |
| 20260906190344 | 83 | 272 | 0.9 | 3.5 | 0.00 | 0.00 | 0.00 | 62 | 1022.1 |
| 20260906185358 | 83 | 272 | 2.6 | 4.3 | 0.00 | 0.00 | 0.00 | 62 | 1021.9 |
| 20260906184357 | 84 | 274 | 3.5 | 4.3 | 0.00 | 0.00 | 0.00 | 60 | 1021.7 |
| 20260906183353 | 84 | 113 | 0.9 | 1.7 | 0.00 | 0.00 | 0.00 | 59 | 1021.6 |
| 20260906182343 | 84 | 113 | 0.9 | 2.6 | 0.00 | 0.00 | 0.00 | 58 | 1021.5 |
| 20260906181402 | 84 | 113 | 0.9 | 2.6 | 0.00 | 0.00 | 0.00 | 57 | 1021.3 |
| 20260906180403 | 85 | 111 | 0.9 | 3.5 | 0.00 | 0.00 | 0.00 | 55 | 1021.3 |
| 20260906175347 | 85 | 112 | 1.7 | 2.6 | 0.00 | 0.00 | 0.00 | 54 | 1021.3 |
| 20260906174405 | 85 | 111 | 0.9 | 3.5 | 0.00 | 0.00 | 0.00 | 53 | 1021.3 |
| 20260906173347 | 86 | 111 | 1.7 | 3.5 | 0.00 | 0.00 | 0.00 | 51 | 1021.2 |
| 20260906172355 | 86 | 111 | 0.9 | 3.5 | 0.00 | 0.00 | 0.00 | 52 | 1021.2 |
| 20260906171352 | 86 | 111 | 0.9 | 4.3 | 0.00 | 0.00 | 0.00 | 52 | 1021.2 |
| 20260906170402 | 87 | 162 | 1.7 | 3.5 | 0.00 | 0.00 | 0.00 | 51 | 1021.2 |
| 20260906165349 | 88 | 222 | 0.0 | 3.5 | 0.00 | 0.00 | 0.00 | 49 | 1021.2 |
| 20260906164344 | 88 | 170 | 0.9 | 4.3 | 0.00 | 0.00 | 0.00 | 48 | 1021.1 |
| 20260906163345 | 88 | 112 | 1.7 | 7.0 | 0.00 | 0.00 | 0.00 | 47 | 1020.9 |
| 20260906162342 | 89 | 169 | 0.9 | 6.1 | 0.00 | 0.00 | 0.00 | 45 | 1020.9 |
| 20260906161343 | 89 | 116 | 2.6 | 8.7 | 0.00 | 0.00 | 0.00 | 42 | 1021.0 |
| 20260906160401 | 89 | 125 | 3.5 | 7.8 | 0.00 | 0.00 | 0.00 | 42 | 1021.0 |
| 20260906155355 | 89 | 175 | 3.5 | 11.3 | 0.00 | 0.00 | 0.00 | 41 | 1021.0 |
| 20260906154346 | 90 | 127 | 5.2 | 9.6 | 0.00 | 0.00 | 0.00 | 40 | 1021.1 |
| 20260906153343 | 90 | 145 | 4.3 | 10.4 | 0.00 | 0.00 | 0.00 | 39 | 1020.9 |
| 20260906152354 | 91 | 146 | 5.2 | 8.7 | 0.00 | 0.00 | 0.00 | 40 | 1020.9 |
| 20260906151351 | 91 | 127 | 3.5 | 10.4 | 0.00 | 0.00 | 0.00 | 39 | 1021.1 |
| 20260906150343 | 91 | 136 | 5.2 | 8.7 | 0.00 | 0.00 | 0.00 | 38 | 1021.2 |
| 20260906145356 | 91 | 126 | 4.3 | 8.7 | 0.00 | 0.00 | 0.00 | 38 | 1021.2 |
| 20260906144348 | 92 | 114 | 4.3 | 7.8 | 0.00 | 0.00 | 0.00 | 37 | 1021.3 |
| 20260906143403 | 92 | 140 | 4.3 | 7.0 | 0.00 | 0.00 | 0.00 | 36 | 1021.5 |
| 20260906142351 | 91 | 118 | 1.7 | 7.8 | 0.00 | 0.00 | 0.00 | 38 | 1021.6 |
| 20260906141346 | 91 | 137 | 4.3 | 9.6 | 0.00 | 0.00 | 0.00 | 38 | 1021.7 |
| 20260906140402 | 90 | 101 | 5.2 | 8.7 | 0.00 | 0.00 | 0.00 | 39 | 1021.7 |
| 20260906135350 | 90 | 122 | 6.1 | 11.3 | 0.00 | 0.00 | 0.00 | 40 | 1021.9 |
| 20260906134347 | 89 | 127 | 6.1 | 11.3 | 0.00 | 0.00 | 0.00 | 42 | 1021.9 |
| 20260906133348 | 90 | 119 | 3.5 | 10.4 | 0.00 | 0.00 | 0.00 | 42 | 1022.0 |
| 20260906132357 | 90 | 135 | 6.1 | 10.4 | 0.00 | 0.00 | 0.00 | 41 | 1021.9 |
| 20260906131357 | 90 | 171 | 3.5 | 9.6 | 0.00 | 0.00 | 0.00 | 40 | 1022.0 |
| 20260906130349 | 90 | 108 | 7.0 | 11.3 | 0.00 | 0.00 | 0.00 | 39 | 1022.1 |
| 20260906125403 | 91 | 159 | 4.3 | 12.2 | 0.00 | 0.00 | 0.00 | 38 | 1022.0 |
| 20260906124350 | 90 | 166 | 3.5 | 9.6 | 0.00 | 0.00 | 0.00 | 38 | 1022.0 |
| 20260906123347 | 90 | 118 | 5.2 | 10.4 | 0.00 | 0.00 | 0.00 | 41 | 1022.2 |
| 20260906122352 | 90 | 127 | 4.3 | 12.2 | 0.00 | 0.00 | 0.00 | 41 | 1022.2 |
| 20260906121342 | 90 | 135 | 3.5 | 10.4 | 0.00 | 0.00 | 0.00 | 40 | 1022.3 |
| 20260906120402 | 90 | 119 | 7.8 | 12.2 | 0.00 | 0.00 | 0.00 | 39 | 1022.2 |
| 20260906115352 | 91 | 84 | 6.1 | 10.4 | 0.00 | 0.00 | 0.00 | 38 | 1022.2 |
| 20260906114403 | 92 | 115 | 4.3 | 8.7 | 0.00 | 0.00 | 0.00 | 36 | 1022.4 |
| 20260906113402 | 92 | 104 | 4.3 | 7.8 | 0.00 | 0.00 | 0.00 | 34 | 1022.2 |
| 20260906112340 | 92 | 159 | 1.7 | 7.8 | 0.00 | 0.00 | 0.00 | 34 | 1022.3 |
| 20260906111355 | 91 | 188 | 2.6 | 7.0 | 0.00 | 0.00 | 0.00 | 35 | 1022.3 |
| 20260906110349 | 91 | 134 | 5.2 | 8.7 | 0.00 | 0.00 | 0.00 | 35 | 1022.4 |
| 20260906105359 | 92 | 171 | 2.6 | 7.8 | 0.00 | 0.00 | 0.00 | 36 | 1022.6 |
| 20260906104357 | 92 | 107 | 3.5 | 8.7 | 0.00 | 0.00 | 0.00 | 35 | 1022.6 |
| 20260906103353 | 92 | 203 | 2.6 | 5.2 | 0.00 | 0.00 | 0.00 | 35 | 1022.6 |
| 20260906102347 | 91 | 130 | 2.6 | 6.1 | 0.00 | 0.00 | 0.00 | 37 | 1022.6 |
| 20260906101349 | 91 | 120 | 2.6 | 4.3 | 0.00 | 0.00 | 0.00 | 38 | 1022.6 |
| 20260906100349 | 90 | 277 | 1.7 | 4.3 | 0.00 | 0.00 | 0.00 | 38 | 1022.7 |
| 20260906095345 | 89 | 314 | 0.9 | 3.5 | 0.00 | 0.00 | 0.00 | 38 | 1022.7 |
| 20260906094400 | 88 | 316 | 0.0 | 4.3 | 0.00 | 0.00 | 0.00 | 40 | 1022.8 |
| 20260906093400 | 88 | 276 | 2.6 | 3.5 | 0.00 | 0.00 | 0.00 | 41 | 1022.9 |
| 20260906092346 | 87 | 277 | 0.9 | 4.3 | 0.00 | 0.00 | 0.00 | 43 | 1022.9 |
| 20260906091348 | 86 | 288 | 0.0 | 2.6 | 0.00 | 0.00 | 0.00 | 45 | 1022.8 |
| 20260906090346 | 86 | 287 | 0.0 | 0.9 | 0.00 | 0.00 | 0.00 | 46 | 1022.8 |
| 20260906085355 | 84 | 287 | 0.9 | 1.7 | 0.00 | 0.00 | 0.00 | 48 | 1022.8 |
| 20260906084354 | 82 | 287 | 0.0 | 2.6 | 0.00 | 0.00 | 0.00 | 51 | 1022.7 |
| 20260906083351 | 81 | 190 | 0.0 | 0.0 | 0.00 | 0.00 | 0.00 | 52 | 1022.6 |
| 20260906082343 | 81 | 95 | 0.0 | 0.0 | 0.00 | 0.00 | 0.00 | 53 | 1022.6 |
| 20260906081356 | 80 | 94 | 0.0 | 0.0 | 0.00 | 0.00 | 0.00 | 55 | 1022.5 |
| 20260906080354 | 79 | 95 | 0.0 | 0.0 | 0.00 | 0.00 | 0.00 | 57 | 1022.4 |
| 20260906075343 | 78 | 94 | 0.0 | 0.0 | 0.00 | 0.00 | 0.00 | 59 | 1022.5 |
| 20260906074342 | 77 | 94 | 0.0 | 0.0 | 0.00 | 0.00 | 0.00 | 61 | 1022.4 |
| 20260906073348 | 77 | 94 | 0.0 | 0.0 | 0.00 | 0.00 | 0.00 | 62 | 1022.3 |
| 20260906072345 | 77 | 97 | 0.0 | 0.0 | 0.00 | 0.00 | 0.00 | 64 | 1022.3 |
| 20260906071344 | 76 | 97 | 0.0 | 0.0 | 0.00 | 0.00 | 0.00 | 65 | 1022.3 |
| 20260906070345 | 74 | 97 | 0.0 | 0.0 | 0.00 | 0.00 | 0.00 | 67 | 1022.3 |
| 20260906065402 | 73 | 97 | 0.0 | 0.0 | 0.00 | 0.00 | 0.00 | 68 | 1022.1 |
| 20260906064359 | 73 | 97 | 0.0 | 0.0 | 0.00 | 0.00 | 0.00 | 69 | 1022.1 |
| 20260906063357 | 73 | 97 | 0.0 | 0.0 | 0.00 | 0.00 | 0.00 | 70 | 1022.1 |
| 20260906061357 | 72 | 100 | 0.0 | 0.0 | 0.00 | 0.00 | 0.00 | 71 | 1022.0 |
| 20260906060357 | 72 | 100 | 0.0 | 0.0 | 0.00 | 0.00 | 0.00 | 70 | 1021.8 |
| 20260906055356 | 71 | 100 | 0.0 | 2.6 | 0.00 | 0.00 | 0.00 | 71 | 1021.8 |
| 20260906054357 | 71 | 101 | 0.0 | 1.7 | 0.00 | 0.00 | 0.00 | 71 | 1021.6 |
| 20260906053352 | 71 | 102 | 0.9 | 3.5 | 0.00 | 0.00 | 0.00 | 70 | 1021.6 |
| 20260906052346 | 72 | 110 | 1.7 | 3.5 | 0.00 | 0.00 | 0.00 | 70 | 1021.5 |
| 20260906051344 | 71 | 118 | 0.0 | 1.7 | 0.00 | 0.00 | 0.00 | 69 | 1021.4 |
| 20260906050343 | 72 | 118 | 0.0 | 2.6 | 0.00 | 0.00 | 0.00 | 69 | 1021.4 |
| 20260906045341 | 72 | 119 | 1.7 | 2.6 | 0.00 | 0.00 | 0.00 | 68 | 1021.3 |
| 20260906044402 | 72 | 121 | 0.9 | 2.6 | 0.00 | 0.00 | 0.00 | 67 | 1021.3 |
| 20260906043403 | 73 | 121 | 0.0 | 0.0 | 0.00 | 0.00 | 0.00 | 67 | 1021.4 |
| 20260906042359 | 73 | 121 | 0.0 | 0.0 | 0.00 | 0.00 | 0.00 | 66 | 1021.5 |
| 20260906041400 | 73 | 121 | 0.0 | 0.0 | 0.00 | 0.00 | 0.00 | 66 | 1021.4 |
| 20260906040401 | 73 | 121 | 0.0 | 0.0 | 0.00 | 0.00 | 0.00 | 66 | 1021.5 |
| 20260906035353 | 73 | 121 | 0.0 | 0.0 | 0.00 | 0.00 | 0.00 | 66 | 1021.5 |
| 20260906034348 | 73 | 121 | 0.0 | 0.0 | 0.00 | 0.00 | 0.00 | 66 | 1021.6 |
| 20260906033344 | 73 | 121 | 0.0 | 1.7 | 0.00 | 0.00 | 0.00 | 65 | 1021.6 |
| 20260906032343 | 73 | 121 | 0.9 | 1.7 | 0.00 | 0.00 | 0.00 | 65 | 1021.7 |
| 20260906031344 | 74 | 121 | 0.0 | 0.0 | 0.00 | 0.00 | 0.00 | 66 | 1021.8 |
| 20260906030347 | 74 | 121 | 0.0 | 0.0 | 0.00 | 0.00 | 0.00 | 65 | 1021.7 |
| 20260906025345 | 74 | 121 | 0.0 | 0.0 | 0.00 | 0.00 | 0.00 | 64 | 1021.8 |
| 20260906024345 | 74 | 121 | 0.0 | 0.0 | 0.00 | 0.00 | 0.00 | 64 | 1021.8 |
| 20260906023344 | 74 | 121 | 0.0 | 0.0 | 0.00 | 0.00 | 0.00 | 64 | 1021.8 |
| 20260906022400 | 75 | 121 | 0.0 | 0.0 | 0.00 | 0.00 | 0.00 | 62 | 1021.8 |
| 20260906021358 | 75 | 121 | 0.0 | 0.0 | 0.00 | 0.00 | 0.00 | 62 | 1021.9 |
| 20260906020341 | 75 | 121 | 0.0 | 0.0 | 0.00 | 0.00 | 0.00 | 62 | 1021.9 |
| 20260906015359 | 75 | 121 | 0.0 | 0.0 | 0.00 | 0.00 | 0.00 | 61 | 1022.1 |
| 20260906014342 | 75 | 121 | 0.0 | 0.0 | 0.00 | 0.00 | 0.00 | 61 | 1022.0 |
| 20260906013345 | 76 | 121 | 0.0 | 0.9 | 0.00 | 0.00 | 0.00 | 62 | 1022.1 |
| 20260906012359 | 76 | 121 | 0.0 | 1.7 | 0.00 | 0.00 | 0.00 | 61 | 1022.3 |
| 20260906011356 | 76 | 121 | 0.0 | 1.7 | 0.00 | 0.00 | 0.00 | 61 | 1022.2 |
| 20260906010357 | 76 | 121 | 0.0 | 0.9 | 0.00 | 0.00 | 0.00 | 61 | 1022.3 |
| 20260906005347 | 76 | 121 | 0.0 | 0.9 | 0.00 | 0.00 | 0.00 | 61 | 1022.3 |
| 20260906004350 | 76 | 121 | 0.9 | 1.7 | 0.00 | 0.00 | 0.00 | 62 | 1022.3 |
| 20260906003350 | 77 | 121 | 0.0 | 0.0 | 0.00 | 0.00 | 0.00 | 64 | 1022.4 |
| 20260906002343 | 77 | 121 | 0.0 | 0.0 | 0.00 | 0.00 | 0.00 | 65 | 1022.6 |
| 20260906001346 | 77 | 121 | 0.0 | 0.0 | 0.00 | 0.00 | 0.00 | 64 | 1022.7 |
| 20260906000348 | 77 | 121 | 0.0 | 0.0 | 0.00 | 0.00 | 0.00 | 64 | 1022.6 |
| 20260905235348 | 77 | 121 | 0.0 | 0.0 | 0.00 | 0.00 | 0.00 | 63 | 1022.6 |
| 20260905234347 | 77 | 121 | 0.0 | 1.7 | 0.00 | 0.00 | 0.00 | 62 | 1022.8 |
| 20260905233344 | 78 | 121 | 0.0 | 1.7 | 0.00 | 0.00 | 0.00 | 63 | 1022.8 |
| 20260905232358 | 78 | 121 | 0.0 | 1.7 | 0.00 | 0.00 | 0.00 | 65 | 1022.9 |
| 20260905231352 | 78 | 121 | 0.0 | 1.7 | 0.00 | 0.00 | 0.00 | 64 | 1023.1 |
| 20260905230353 | 79 | 121 | 0.0 | 0.9 | 0.00 | 0.00 | 0.00 | 63 | 1023.1 |
| 20260905225348 | 79 | 121 | 0.0 | 0.0 | 0.00 | 0.00 | 0.00 | 62 | 1023.1 |
| 20260905224343 | 79 | 121 | 0.9 | 1.7 | 0.00 | 0.00 | 0.00 | 61 | 1023.1 |